Volver al catálogo

FENGYUN 1C DEB

ActivoPO
NORAD 37069·DEBRIS·🇨🇳 China

Lanzado May 10, 1999 desde Taiyuan Satellite Launch Center

Loading…

Próximos Pases (próximas 24 horas)

TLE

ActualizadoSource: Space-Track

Época: Sep 11, 2026, 09:49 UTC

1 37069U 99025EFD 26254.40911403  .00000978  00000-0  11153-2 0  9998
2 37069  95.8439 115.0411 0419142 241.4157 114.4207 13.39066543913566

Sigue FENGYUN 1C DEB en tiempo real con AllMySat

Download on the App Store